Wetbulb
69.39 71.32 72.63 73.19 72.29 72.08 72.24 72.40 72.31 72.72 72.57 72.35 72.39 72.35 72.38 72.72 72.73 72.64 72.44 71.81 71.77 71.32 71.51 71.31 71.37 71.52 71.22 71.34 70.75 68.99 69.54 69.87 69.51 70.00 70.92 70.88 69.78 69.85 70.02 69.95 70.08 69.97 70.85
70.55 72.06 71.55 72.81 72.89 72.25 72.25 72.09 72.30 72.63 72.66 72.17 72.23 72.29 71.78 71.85 71.85 71.85 71.97 72.22 71.95 71.78 71.80 71.66 71.33 71.35 71.12 70.28 70.84 69.93 68.99 68.74 68.61 68.51 68.51 70.19 69.83 69.22 69.51 70.08 70.18 69.92 70.88
70.43 71.57 71.86 72.09 72.49 72.45 72.32 72.19 72.17 72.36 71.98 71.68 71.67 71.62 71.62 71.61 71.55 71.41 71.28 71.50 71.89 71.68 71.78 71.68 71.42 70.97 70.70 70.73 70.32 70.18 69.19 67.91 67.80 68.31 68.34 68.16 68.64 69.06 69.32 69.25 70.12 70.04 70.74
70.61 71.39 71.05 70.94 72.05 72.16 72.06 71.88 71.87 71.99 71.81 71.10 70.89 70.75 70.59 70.42 70.25 70.20 70.21 70.05 69.97 69.98 70.11 70.39 70.59 70.49 70.46 70.30 70.19 69.57 69.22 68.53 68.15 67.83 67.96 68.64 68.29 69.30 68.30 69.81 69.81 70.12 70.61
70.11 71.07 70.68 70.58 71.75 71.95 71.89 71.64 71.69 71.75 71.74 71.49 71.17 71.23 71.11 70.68 70.29 69.87 69.52 69.26 69.21 69.28 69.32 69.39 69.40 69.28 69.05 69.00 69.33 69.52 69.36 69.06 68.49 67.33 69.12 69.10 69.18 69.18 67.85 69.65 71.12 70.63 70.93
70.28 70.76 69.88 70.79 71.46 71.62 71.54 71.49 71.44 71.40 71.23 71.17 70.91 70.70 70.24 69.84 69.66 69.43 69.32 69.21 69.05 69.10 69.20 69.14 68.64 68.14 68.50 68.66 68.71 68.58 68.31 67.89 66.96 68.61 68.22 68.80 68.71 69.26 68.94 69.04 69.98 70.47 70.08
69.56 70.21 70.81 70.15 70.79 71.16 71.22 71.22 71.06 70.87 70.60 70.49 70.30 69.74 69.06 68.57 68.17 67.50 66.82 66.59 66.22 66.08 65.91 65.74 65.12 64.87 64.75 65.49 65.87 65.52 65.59 65.35 66.34 66.08 66.47 67.53 68.51 68.02 67.91 68.52 68.80 69.49 70.26
69.41 70.27 70.20 67.31 68.66 69.73 70.22 70.16 70.19 70.14 70.04 69.42 68.89 68.32 67.68 66.60 65.95 65.40 64.83 63.95 63.26 62.67 62.30 62.02 61.22 60.71 60.54 60.54 60.19 59.56 58.81 59.35 65.03 66.48 66.21 66.09 67.50 67.34 68.08 68.62 68.84 68.79 69.49
70.16 70.09 69.43 69.61 68.13 65.86 67.02 67.43 68.04 68.13 67.70 66.73 65.96 65.16 63.98 62.73 61.95 61.34 60.69 60.52 60.22 59.76 59.23 58.82 58.14 57.29 57.00 56.97 56.78 56.17 55.96 57.52 59.69 66.44 67.10 67.10 67.33 67.65 67.71 67.82 67.82 68.30 69.54
69.14 68.97 69.05 68.83 67.82 67.57 65.74 62.27 63.20 63.78 63.39 62.34 61.04 59.85 59.00 58.36 57.69 58.05 57.62 57.03 57.34 57.21 56.55 55.81 55.13 54.32 53.94 53.58 53.65 53.74 54.54 56.20 57.37 60.02 63.40 65.59 65.98 66.89 67.27 67.75 67.92 68.30 68.14
66.83 67.29 67.23 65.45 63.38 62.46 62.08 59.23 59.62 59.12 58.78 57.54 56.25 56.38 56.85 56.04 55.14 54.05 53.38 53.53 53.74 53.90 53.83 53.61 53.13 52.48 52.67 53.98 52.58 53.95 54.26 54.46 54.67 54.72 55.66 59.17 60.10 63.13 64.14 65.35 66.36 67.05 67.78
65.33 65.03 66.02 63.46 60.93 60.65 60.52 61.00 60.49 56.80 57.42 56.36 55.84 56.11 55.82 55.12 53.92 52.23 50.74 50.78 50.93 50.15 50.62 51.00 51.23 51.87 53.95 53.03 53.15 54.55 53.37 53.55 53.47 53.75 54.32 57.65 56.58 57.72 58.90 59.75 60.69 62.72 64.50
64.55 62.16 63.13 61.18 60.26 59.22 58.87 59.17 59.10 58.17 57.27 56.74 55.98 55.44 54.84 54.16 54.38 54.05 53.95 53.41 53.46 51.19 52.34 52.49 52.80 52.23 52.21 52.07 52.15 52.40 52.58 52.91 53.15 53.53 54.64 55.63 54.85 55.89 57.14 58.28 58.94 59.60 60.28
59.96 59.40 60.12 59.86 58.17 58.71 58.92 58.25 57.26 56.11 55.63 54.83 54.70 54.74 54.69 54.12 53.80 53.08 52.53 52.36 52.49 52.02 51.67 51.95 51.59 51.51 51.18 51.28 50.92 50.81 51.26 51.48 51.90 52.26 53.07 53.76 52.99 54.19 55.85 57.42 58.12 58.66 59.25
59.76 58.91 58.15 58.64 58.00 57.55 57.44 57.14 56.01 55.01 54.73 54.30 53.80 53.75 53.93 53.34 52.78 52.24 51.62 51.47 51.26 51.00 50.51 50.29 50.19 49.86 50.21 50.32 50.34 50.22 50.23 50.55 50.90 51.16 52.17 52.30 52.82 52.74 54.27 55.71 56.71 57.52 58.17
60.03 59.37 58.28 58.50 58.39 56.63 55.81 55.63 55.11 54.77 54.03 53.56 53.19 52.36 52.27 52.25 51.73 51.12 50.82 50.31 50.21 49.85 49.55 49.33 48.84 48.69 49.12 49.74 49.20 49.57 49.23 49.56 49.90 50.10 50.52 51.43 53.05 51.89 52.41 53.87 55.30 56.09 56.79
59.49 59.51 58.87 57.59 56.23 54.73 54.13 54.79 54.54 53.68 53.04 52.59 51.70 51.24 50.88 50.80 50.45 50.23 49.79 49.46 48.88 48.93 48.67 48.90 48.77 48.71 48.54 48.78 48.57 48.81 48.90 49.08 49.01 49.08 49.49 50.05 50.97 52.34 51.58 52.77 53.95 54.72 55.07
58.83 56.32 55.98 55.14 54.38 53.81 53.57 53.55 52.82 52.20 52.28 51.42 50.75 50.38 49.86 49.31 49.37 49.14 48.96 48.27 47.88 48.06 47.52 47.59 47.16 46.85 47.36 47.30 47.16 47.46 47.82 48.53 48.75 48.71 49.30 50.10 51.45 51.32 51.99 51.30 51.15 51.88 52.82
59.02 55.70 54.43 54.03 53.31 52.86 53.11 52.52 51.89 51.78 51.03 50.45 50.07 49.75 48.76 48.11 47.73 48.35 47.96 47.13 46.92 46.95 46.80 46.13 46.13 45.97 45.33 46.04 45.98 46.29 47.57 47.83 48.31 48.98 48.81 50.62 49.20 49.39 49.48 50.30 50.55 50.79 50.34
59.24 56.68 54.30 53.02 53.05 52.78 52.09 51.46 50.67 49.76 49.52 49.47 49.35 48.77 47.86 47.34 46.68 47.31 46.71 46.11 46.10 46.02 45.76 45.14 44.48 45.37 45.24 45.14 43.93 45.90 47.21 48.13 48.66 47.97 48.98 49.35 47.74 47.94 48.33 47.86 48.10 47.94 48.64
58.48 56.69 54.09 52.21 52.30 51.44 49.92 48.98 48.24 47.06 47.77 47.88 48.15 47.42 46.94 46.45 45.92 45.92 45.94 45.36 45.08 44.51 43.62 43.57 43.50 43.81 44.50 44.26 44.12 45.90 46.69 47.53 46.90 47.93 47.57 47.51 45.97 46.87 46.32 46.66 46.46 46.78 46.55
55.78 55.95 53.53 52.18 51.80 50.54 49.98 49.73 49.33 48.92 47.92 47.74 46.87 46.21 46.12 45.62 45.40 44.93 44.76 44.31 43.63 43.50 43.16 42.75 42.56 41.87 43.44 43.27 41.05 42.84 43.16 45.13 46.10 46.27 46.26 45.92 45.28 45.48 45.18 45.01 45.22 44.87 45.19
53.15 54.46 52.71 52.07 51.41 50.25 50.33 49.83 49.08 48.17 47.24 45.36 44.61 44.41 44.42 44.73 44.32 43.95 43.38 43.39 42.90 42.64 42.16 41.74 41.64 40.82 40.51 42.49 42.72 40.69 41.08 40.43 39.86 44.81 44.06 44.43 44.21 43.54 43.85 44.14 43.84 44.34 44.65
50.10 53.43 53.05 52.18 51.10 50.26 50.20 47.91 46.26 44.57 43.44 45.05 44.71 45.17 43.45 43.87 43.11 42.87 42.41 42.08 42.04 42.02 41.40 41.11 40.76 40.73 40.53 39.86 41.59 41.05 40.83 39.55 37.40 37.86 43.46 43.57 43.43 41.82 42.10 42.69 42.77 43.26 43.81
48.57 51.34 52.55 52.05 50.77 49.88 49.18 47.13 46.32 47.19 47.71 47.15 45.60 43.87 42.89 42.69 42.77 41.80 41.77 41.24 41.13 41.37 40.67 40.07 39.98 39.93 40.32 39.77 39.52 39.14 38.21 38.56 38.32 36.29 34.96 38.56 40.11 41.74 41.97 41.71 42.47 42.94 42.50
47.63 49.65 51.64 51.03 49.67 49.10 48.18 47.45 47.35 47.94 46.49 44.62 43.65 42.68 42.25 42.02 41.53 41.18 40.80 40.79 40.55 40.20 40.04 39.63 39.37 38.93 39.23 39.12 39.26 38.31 37.76 36.95 36.92 35.48 34.37 35.05 35.16 38.97 39.69 42.02 42.02 41.84 41.53
MSLP
1008.43 1009.49 1010.47 1010.92 1011.33 1011.72 1012.00 1012.24 1012.40 1012.58 1012.68 1012.90 1012.95 1013.08 1013.14 1013.32 1013.63 1013.81 1013.95 1014.06 1014.21 1014.35 1014.39 1014.64 1014.65 1014.85 1015.00 1015.26 1015.40 1015.52 1015.62 1015.67 1015.71 1015.69 1015.63 1015.63 1015.62 1015.65 1015.61 1015.69 1015.63 1014.98 1015.27
1008.27 1009.45 1010.55 1010.92 1011.23 1011.78 1012.10 1012.43 1012.68 1012.76 1012.83 1013.05 1013.20 1013.38 1013.51 1013.71 1013.96 1014.09 1014.20 1014.36 1014.51 1014.59 1014.73 1014.86 1014.96 1015.21 1015.21 1015.33 1015.53 1015.61 1015.71 1015.83 1015.87 1015.78 1015.68 1015.56 1015.48 1015.61 1015.59 1015.70 1015.75 1015.51 1015.59
1008.46 1009.74 1010.58 1010.92 1011.31 1011.72 1012.25 1012.62 1012.83 1012.96 1013.05 1013.21 1013.39 1013.57 1013.87 1014.16 1014.31 1014.50 1014.68 1014.76 1014.77 1014.84 1014.98 1015.14 1015.24 1015.37 1015.39 1015.55 1015.61 1015.70 1015.76 1015.93 1015.91 1015.96 1015.78 1015.25 1014.92 1015.50 1015.65 1015.65 1015.72 1015.74 1015.73
1008.94 1009.83 1010.38 1011.11 1011.40 1011.89 1012.25 1012.65 1012.94 1013.22 1013.29 1013.42 1013.65 1013.81 1014.00 1014.25 1014.47 1014.77 1014.98 1015.14 1015.23 1015.27 1015.40 1015.53 1015.60 1015.73 1015.68 1015.75 1015.79 1015.83 1015.85 1015.98 1016.00 1016.01 1015.54 1014.91 1014.99 1015.45 1015.70 1015.75 1015.72 1015.78 1015.78
1009.42 1009.87 1010.45 1011.29 1011.64 1011.99 1012.35 1012.76 1013.07 1013.31 1013.52 1013.64 1013.77 1014.04 1014.27 1014.47 1014.64 1014.91 1015.11 1015.33 1015.45 1015.58 1015.67 1015.85 1016.02 1016.09 1016.01 1016.11 1016.02 1016.05 1016.06 1016.09 1016.04 1015.92 1015.22 1015.05 1015.07 1015.20 1015.71 1015.86 1015.74 1015.79 1015.82
1009.53 1010.23 1011.03 1011.39 1011.91 1012.23 1012.54 1012.76 1013.16 1013.46 1013.68 1013.79 1014.04 1014.23 1014.49 1014.77 1014.97 1015.16 1015.36 1015.54 1015.67 1015.80 1015.91 1016.03 1016.28 1016.48 1016.43 1016.43 1016.43 1016.40 1016.42 1016.39 1016.25 1015.44 1015.26 1015.17 1015.30 1015.55 1015.84 1015.99 1016.02 1015.96 1015.96
1009.70 1010.47 1011.19 1011.68 1011.99 1012.45 1012.73 1012.92 1013.22 1013.53 1013.86 1014.08 1014.37 1014.63 1014.86 1015.05 1015.31 1015.56 1015.80 1016.01 1016.18 1016.26 1016.46 1016.55 1016.66 1016.70 1016.75 1016.82 1016.87 1016.92 1016.78 1016.60 1016.11 1015.63 1015.14 1015.13 1015.29 1015.56 1015.80 1015.98 1015.92 1015.90 1015.91
1009.71 1010.35 1011.17 1012.06 1012.32 1012.56 1012.91 1013.19 1013.39 1013.66 1013.98 1014.31 1014.70 1015.04 1015.29 1015.44 1015.73 1016.04 1016.20 1016.31 1016.55 1016.76 1016.86 1016.98 1017.03 1017.02 1017.04 1017.06 1017.10 1017.08 1016.97 1016.82 1016.23 1015.48 1015.22 1015.23 1015.29 1015.48 1015.67 1015.86 1015.86 1015.81 1015.71
1009.95 1010.48 1011.17 1011.78 1012.48 1012.83 1013.17 1013.50 1013.87 1014.03 1014.17 1014.68 1015.15 1015.56 1015.83 1016.00 1016.15 1016.49 1016.71 1016.72 1016.80 1017.00 1017.17 1017.30 1017.34 1017.33 1017.30 1017.23 1017.18 1017.18 1017.09 1016.85 1016.42 1015.52 1015.37 1015.35 1015.71 1015.73 1015.75 1015.79 1015.73 1015.60 1015.49
1010.50 1010.95 1011.28 1011.86 1012.53 1013.17 1013.52 1013.87 1014.26 1014.52 1014.75 1015.13 1015.72 1016.14 1016.43 1016.58 1016.82 1016.93 1017.06 1017.21 1017.25 1017.41 1017.44 1017.56 1017.64 1017.66 1017.48 1017.38 1017.32 1017.22 1017.02 1016.62 1016.12 1015.62 1015.43 1015.51 1015.71 1015.83 1015.85 1015.77 1015.61 1015.38 1015.27
1010.81 1011.33 1011.68 1012.33 1013.02 1013.46 1013.98 1014.38 1014.68 1015.01 1015.36 1015.70 1016.15 1016.44 1016.45 1016.36 1016.81 1017.23 1017.60 1017.62 1017.68 1017.72 1017.76 1017.79 1017.75 1017.60 1017.32 1017.14 1017.07 1017.02 1016.80 1016.02 1016.05 1015.95 1015.69 1015.98 1016.09 1016.10 1016.12 1015.87 1015.60 1015.40 1015.15
1010.54 1011.44 1011.76 1012.65 1013.29 1013.73 1014.25 1014.33 1014.61 1015.29 1015.26 1015.55 1015.89 1016.11 1016.40 1016.60 1017.04 1017.29 1017.82 1017.86 1017.91 1017.93 1017.82 1017.77 1017.80 1017.44 1017.21 1016.97 1016.75 1016.69 1016.49 1016.56 1016.35 1015.99 1015.83 1016.04 1016.21 1016.29 1016.32 1016.06 1015.81 1015.50 1015.25
1010.62 1011.73 1011.99 1012.82 1013.31 1013.85 1014.06 1014.02 1014.50 1014.88 1015.30 1015.60 1015.97 1016.36 1016.59 1016.70 1016.95 1017.03 1017.19 1017.33 1017.53 1017.67 1017.49 1017.51 1017.41 1017.39 1017.56 1017.44 1017.19 1016.99 1016.88 1016.75 1016.42 1016.11 1015.97 1016.21 1016.43 1016.53 1016.44 1016.17 1015.81 1015.52 1015.27
1011.02 1011.85 1012.33 1012.77 1013.23 1013.61 1013.75 1013.90 1014.08 1014.84 1015.33 1015.66 1016.06 1016.40 1016.64 1016.78 1016.98 1017.04 1017.13 1017.42 1017.57 1017.73 1017.85 1017.73 1017.76 1017.78 1017.70 1017.50 1017.50 1017.28 1017.10 1017.03 1016.69 1016.51 1016.28 1016.33 1016.56 1016.58 1016.45 1016.16 1015.86 1015.57 1015.28
1010.71 1011.52 1012.07 1012.64 1012.85 1013.26 1013.41 1013.49 1014.03 1014.63 1015.10 1015.49 1016.04 1016.48 1016.56 1016.72 1016.99 1017.04 1017.29 1017.36 1017.61 1017.85 1017.89 1017.85 1017.84 1017.80 1017.71 1017.60 1017.50 1017.32 1017.23 1017.07 1016.89 1016.73 1016.44 1016.32 1016.44 1016.56 1016.49 1016.24 1015.95 1015.64 1015.37
1010.21 1010.97 1011.83 1012.20 1012.62 1012.93 1013.33 1013.39 1013.88 1014.51 1015.03 1015.44 1016.02 1016.57 1016.82 1016.92 1017.07 1017.09 1017.25 1017.45 1017.69 1018.00 1018.07 1018.07 1018.12 1017.99 1017.82 1017.61 1017.43 1017.34 1017.27 1017.15 1017.05 1016.90 1016.69 1016.46 1016.41 1016.46 1016.47 1016.32 1016.11 1015.90 1015.64
1009.88 1010.60 1011.36 1011.70 1012.35 1012.54 1013.11 1013.42 1013.94 1014.72 1015.13 1015.58 1016.22 1016.73 1017.12 1017.18 1017.24 1017.28 1017.37 1017.52 1017.92 1018.10 1018.15 1018.06 1018.06 1017.92 1017.71 1017.49 1017.41 1017.25 1017.15 1017.07 1017.05 1017.00 1016.95 1016.75 1016.53 1016.41 1016.44 1016.39 1016.44 1016.21 1015.92
1009.45 1010.18 1011.13 1011.77 1012.20 1012.47 1013.05 1013.56 1014.07 1014.79 1015.09 1015.72 1016.26 1016.83 1017.34 1017.47 1017.41 1017.44 1017.62 1017.81 1018.28 1018.20 1018.25 1018.16 1018.09 1018.10 1017.89 1017.69 1017.49 1017.36 1017.20 1017.02 1017.03 1017.06 1016.96 1016.90 1016.77 1016.81 1016.64 1016.81 1016.77 1016.49 1016.20
1008.69 1009.72 1010.57 1011.43 1012.12 1012.39 1012.81 1013.51 1014.20 1014.87 1015.30 1015.77 1016.30 1016.81 1017.44 1017.67 1017.85 1017.73 1017.90 1018.22 1018.48 1018.38 1018.43 1018.53 1018.40 1018.40 1018.22 1017.90 1017.70 1017.49 1017.24 1017.10 1017.13 1017.04 1016.98 1016.84 1017.25 1017.10 1016.86 1016.74 1016.66 1016.39 1016.30
1008.10 1009.09 1010.08 1010.98 1011.62 1012.38 1012.76 1013.59 1014.47 1015.09 1015.41 1015.78 1016.32 1016.86 1017.46 1017.74 1018.00 1018.04 1018.18 1018.48 1018.60 1018.56 1018.68 1018.79 1018.78 1018.68 1018.51 1018.22 1017.94 1017.39 1017.22 1017.25 1017.17 1017.07 1016.97 1016.98 1017.29 1017.15 1017.04 1016.95 1016.75 1016.50 1016.38
1007.51 1008.36 1009.25 1010.16 1011.06 1011.89 1012.51 1013.33 1014.12 1014.72 1015.30 1015.78 1016.52 1017.24 1017.48 1017.79 1018.11 1018.20 1018.25 1018.50 1018.77 1018.82 1018.95 1019.07 1018.97 1018.74 1018.47 1018.52 1017.92 1017.27 1017.10 1017.28 1017.34 1017.21 1017.27 1017.28 1017.48 1017.33 1017.33 1017.20 1017.04 1016.83 1016.62
1006.80 1007.54 1008.58 1009.44 1010.34 1011.26 1011.99 1012.73 1013.42 1014.16 1015.05 1015.70 1016.56 1017.13 1017.44 1017.86 1018.15 1018.29 1018.50 1018.75 1018.96 1018.97 1019.01 1019.16 1019.19 1018.98 1018.71 1018.85 1018.50 1017.93 1017.18 1017.24 1017.38 1017.51 1017.59 1017.61 1017.65 1017.68 1017.51 1017.38 1017.18 1017.01 1016.81
1006.05 1006.88 1007.75 1008.58 1009.48 1010.57 1011.44 1012.42 1013.27 1014.17 1015.03 1015.84 1016.50 1017.08 1017.57 1017.85 1018.20 1018.43 1018.74 1018.82 1019.04 1019.17 1019.16 1019.25 1019.35 1019.35 1019.08 1018.99 1019.04 1018.87 1018.12 1017.85 1017.93 1017.53 1017.77 1017.93 1017.91 1017.98 1017.84 1017.59 1017.42 1017.13 1016.84
1005.28 1006.04 1007.05 1008.04 1008.98 1010.03 1010.85 1011.81 1012.62 1013.35 1014.07 1014.74 1015.77 1016.63 1017.39 1017.78 1018.17 1018.45 1018.72 1018.98 1019.15 1019.21 1019.37 1019.43 1019.55 1019.69 1019.54 1019.13 1019.34 1019.44 1019.54 1019.39 1018.95 1018.38 1018.05 1018.02 1018.20 1018.17 1017.97 1017.79 1017.59 1017.35 1017.09
1005.10 1005.64 1006.37 1007.40 1008.52 1009.54 1010.38 1011.21 1012.16 1012.82 1013.35 1014.11 1015.38 1016.45 1017.12 1017.74 1018.17 1018.47 1018.64 1018.95 1019.09 1019.29 1019.61 1019.64 1019.77 1019.85 1019.74 1019.70 1019.67 1019.82 1020.04 1019.92 1020.03 1019.77 1019.11 1018.50 1018.44 1018.20 1018.13 1017.88 1017.63 1017.37 1017.45
1004.88 1005.67 1006.26 1006.80 1007.71 1008.75 1009.79 1010.71 1011.40 1012.00 1012.88 1013.97 1015.10 1015.99 1016.77 1017.48 1018.02 1018.44 1018.64 1018.86 1019.10 1019.45 1019.67 1019.78 1019.97 1020.00 1020.06 1020.15 1020.18 1020.37 1020.34 1020.33 1020.24 1020.45 1020.27 1019.57 1019.20 1018.28 1018.30 1017.86 1017.67 1017.75 1017.81
Wind_Speed
12 17 12 16 16 14 12 12 12 11 12 12 13 12 15 15 13 12 11 9 7 5 4 3 4 4 5 5 6 7 7 7 7 8 6 4 4 5 5 4 6 7 5
14 17 12 14 16 14 12 12 11 12 13 14 14 14 14 14 14 14 13 11 11 11 10 8 7 7 7 2 6 6 6 5 4 3 3 7 3 1 4 3 5 8 7
14 15 15 12 15 15 12 11 12 12 14 14 15 15 15 14 14 14 14 12 12 12 12 12 11 9 9 8 5 5 4 2 2 3 5 8 1 3 3 4 4 6 6
14 14 14 10 15 15 14 11 13 12 13 14 14 14 15 15 14 13 13 12 11 11 11 11 11 10 10 9 7 4 2 2 3 4 7 3 5 7 2 6 5 6 6
11 11 13 11 14 15 14 12 11 13 13 13 14 14 14 14 14 13 12 11 11 10 10 10 10 10 9 9 9 8 7 5 4 7 7 5 4 5 2 6 9 7 6
12 10 13 13 13 14 14 13 12 12 12 13 13 15 13 13 13 13 13 14 13 13 12 13 13 13 13 12 11 10 10 9 10 7 6 4 4 6 6 8 9 9 9
10 13 14 11 14 14 14 14 13 12 12 13 15 15 14 13 13 13 12 13 14 13 13 12 11 11 12 11 10 10 10 10 7 8 7 5 3 3 3 8 10 10 9
12 13 13 10 11 12 13 14 14 13 14 15 15 15 14 15 15 14 14 13 12 12 12 11 11 11 10 10 9 10 10 10 9 9 7 7 4 1 6 10 12 13 12
11 11 11 13 11 10 11 12 14 16 17 17 16 16 16 16 15 14 13 13 12 11 11 11 10 9 8 8 9 9 10 10 8 7 7 5 13 7 8 13 14 15 15
10 10 10 9 7 11 11 14 14 16 17 18 16 15 15 14 13 11 12 11 11 10 10 9 8 7 6 5 6 8 10 13 9 7 6 4 8 11 13 15 16 16 16
11 10 9 9 8 8 9 11 13 16 16 16 13 11 9 7 9 10 10 11 10 9 9 8 8 7 7 6 1 5 10 4 6 6 5 10 10 10 14 17 17 17 17
16 10 11 11 10 8 7 9 10 12 9 9 8 8 5 6 6 8 7 7 8 4 4 4 5 5 5 5 4 5 4 6 6 6 6 10 11 13 16 18 19 19 20
12 7 9 11 10 9 7 7 5 5 5 6 8 6 5 5 4 2 3 2 2 4 4 5 5 5 6 5 5 5 6 6 5 5 7 8 10 13 16 17 18 19 20
9 10 9 12 10 9 6 6 7 6 6 5 6 6 4 3 3 2 2 2 2 3 4 4 3 4 5 6 6 6 7 6 5 5 7 5 8 13 15 16 17 18 19
11 12 12 11 11 8 9 7 7 7 6 7 6 4 3 4 3 3 3 2 2 3 3 4 4 5 5 6 6 6 7 7 8 5 5 9 7 12 15 16 16 16 17
13 16 15 15 12 13 8 9 7 6 7 6 6 5 4 3 3 3 3 2 2 3 4 4 5 5 5 5 6 7 7 7 8 8 6 7 9 10 12 14 15 16 16
13 14 16 17 14 13 11 8 6 6 7 6 6 5 4 3 3 3 2 2 3 3 4 3 4 4 5 5 7 6 6 7 7 8 7 6 7 7 9 12 16 16 16
15 17 15 11 12 12 10 8 7 7 6 6 6 5 4 4 3 3 2 3 3 2 3 4 4 5 5 6 6 6 6 6 7 6 5 5 6 7 9 14 13 13 15
18 18 18 14 13 12 12 8 8 8 6 6 5 5 5 4 3 2 2 3 3 2 3 4 4 4 6 6 6 6 5 4 4 3 5 5 6 5 5 10 12 8 15
18 18 17 14 15 12 9 8 7 6 6 6 5 4 5 4 3 2 3 3 2 2 2 3 4 4 5 5 7 5 3 2 3 3 3 4 6 6 7 9 8 8 16
17 18 19 18 16 12 10 9 7 8 6 6 5 7 5 4 4 3 2 2 1 1 3 3 4 4 3 6 5 2 1 2 3 4 3 4 7 7 9 8 6 6 7
18 19 18 19 18 14 10 9 6 8 6 7 6 6 5 5 4 3 2 2 1 1 1 3 3 3 2 4 4 4 1 3 2 0 4 3 6 7 8 9 9 9 8
18 19 20 20 20 16 14 9 7 7 7 6 7 6 6 6 4 4 3 2 1 1 2 2 3 3 2 2 4 3 2 2 4 2 3 4 5 7 8 8 9 9 8
19 19 20 19 19 16 17 13 15 10 10 7 8 7 6 6 5 4 3 2 1 0 0 1 2 2 1 2 1 3 3 3 3 3 1 2 6 7 8 7 7 8 9
15 17 19 19 19 18 17 15 12 10 8 8 8 10 8 6 6 5 4 3 2 1 2 2 1 1 1 1 1 1 2 1 1 2 4 5 5 4 6 6 6 6 9
12 14 17 20 20 19 18 16 16 14 11 9 9 8 7 6 5 5 4 3 3 3 3 2 3 3 1 1 1 1 1 1 1 1 3 6 8 3 7 5 6 6 7
Wind_Direction
150 140 150 144 142 142 138 131 124 116 109 105 102 96 92 92 91 91 90 92 88 77 72 67 87 107 113 113 98 100 76 67 49 38 28 23 14 358 353 357 329 318 46
147 143 146 147 144 142 137 131 126 120 115 107 99 91 89 93 94 90 86 84 84 77 73 72 85 79 61 102 117 106 85 73 57 46 349 259 219 36 344 342 322 331 350
147 137 157 150 146 139 136 137 133 123 119 113 109 104 98 93 89 85 79 72 73 75 76 78 74 66 64 64 87 117 108 85 42 343 299 273 47 119 322 318 300 305 314
130 152 154 147 142 141 138 140 133 128 125 121 116 111 108 103 95 87 79 70 68 66 66 66 67 62 62 59 56 62 62 24 356 316 277 318 313 124 307 307 303 294 295
140 158 128 138 145 144 143 144 137 136 131 125 121 114 110 104 100 95 88 80 70 62 57 51 49 50 51 47 47 43 34 11 334 280 276 293 318 92 34 316 310 281 264
147 135 133 139 146 146 146 143 136 133 135 131 124 117 108 104 97 93 88 82 77 71 68 63 53 43 41 41 38 33 26 9 330 285 304 336 301 44 12 329 318 321 314
156 133 147 140 143 144 144 141 139 136 129 119 108 106 108 106 102 97 93 80 75 71 68 67 64 57 51 43 34 22 13 351 311 305 296 261 253 98 327 305 301 301 298
160 142 141 137 137 138 137 137 132 127 118 111 110 105 103 97 94 92 88 87 80 73 66 61 55 49 48 44 32 20 5 347 309 300 294 292 317 116 304 293 289 287 286
147 154 153 157 143 107 107 109 110 110 109 107 105 103 99 96 95 92 89 85 81 75 66 57 49 39 30 30 23 8 344 316 296 283 311 310 27 358 314 300 293 291 286
155 157 151 135 129 123 118 103 99 102 104 106 106 106 104 102 100 99 98 78 77 73 65 57 43 27 14 26 15 355 320 298 265 321 292 297 18 341 317 299 295 291 286
160 155 129 122 114 114 121 111 105 102 107 113 120 137 158 119 111 88 78 78 72 65 54 40 27 11 335 242 175 337 300 316 325 304 298 47 8 328 314 316 314 317 313
174 151 155 149 134 138 149 148 133 140 142 134 141 136 120 108 90 97 102 99 82 52 73 30 9 307 306 347 328 307 336 330 304 297 297 31 350 325 314 309 306 305 307
176 160 156 154 149 159 161 135 151 141 137 135 134 134 132 124 142 132 111 81 35 38 13 357 1 8 353 342 340 329 327 318 312 305 310 18 342 320 312 309 305 302 301
156 170 171 164 159 173 155 160 146 154 150 148 140 140 138 138 128 114 76 64 38 20 359 1 357 346 337 334 325 321 322 315 316 316 305 29 341 320 316 316 313 309 306
185 179 177 173 167 173 168 151 153 149 159 139 141 142 154 137 129 117 90 64 40 2 12 355 350 342 333 329 321 320 319 316 316 309 312 322 332 328 324 326 327 323 318
198 187 175 177 175 174 172 153 148 158 140 148 138 132 122 127 132 111 97 71 46 16 5 352 343 333 325 322 319 327 323 320 319 318 318 321 328 327 332 337 337 338 334
201 182 188 176 179 168 162 151 145 148 153 140 128 128 132 132 110 99 83 59 40 13 343 341 332 329 323 326 322 325 324 325 322 326 326 326 328 338 356 350 352 348 353
195 183 177 181 177 168 158 151 148 149 144 138 138 136 132 111 100 91 89 63 29 8 351 344 345 338 331 324 324 328 325 326 334 339 346 353 11 3 2 12 355 348 357
194 184 181 182 182 170 154 152 147 152 146 145 146 142 139 119 99 105 80 68 15 16 355 346 347 342 326 324 323 321 324 340 3 21 11 37 41 15 355 355 355 346 357
192 188 183 177 177 169 149 144 144 149 148 145 144 144 154 135 130 135 108 87 24 6 352 354 340 337 317 332 322 310 353 10 58 357 17 49 20 3 7 357 344 346 345
195 186 185 177 175 167 162 159 159 169 158 152 157 153 149 144 139 137 114 102 25 7 7 345 342 336 340 349 297 331 201 167 38 58 30 21 8 17 360 359 351 349 343
198 190 185 181 175 173 169 165 161 158 165 159 153 160 154 150 150 137 132 134 71 326 6 357 2 350 4 14 337 280 315 162 118 148 20 19 13 5 355 354 350 348 347
198 194 189 185 177 174 170 160 148 124 137 157 170 165 167 161 152 151 143 112 114 342 344 359 7 16 352 61 21 347 297 353 332 102 28 1 16 353 356 348 346 346 349
202 194 191 184 178 178 170 160 163 167 168 183 174 165 158 161 162 152 139 136 128 67 355 22 34 358 333 54 136 42 25 355 347 310 292 358 7 351 341 348 348 345 352
203 195 189 183 178 177 175 169 170 182 170 153 157 154 159 160 164 155 151 149 140 170 132 107 127 88 68 340 24 69 63 13 337 336 306 328 342 357 356 335 340 357 1
194 198 192 183 182 178 174 177 179 177 151 151 157 162 163 166 165 164 154 162 150 149 164 136 141 117 84 58 24 66 7 344 74 321 308 323 318 312 326 354 350 1 357